Tracking 20241 objects as of 27-Jan-2020
HD Live streaming from Space Station
objects crossing your sky now

COSMOS 2251 DEB

Track COSMOS 2251 DEB now!
10-day predictions


NORAD ID: 34045
Int'l Code: 1993-036JG
Perigee: 770.1 km
Apogee: 808.4 km
Inclination: 74.0 °
Period: 100.5 minutes
Semi major axis: 7160 km
RCS: 0.1155 m2 (medium)
Launch date: June 16, 1993
Source: Commonwealth of Independent States (former USSR) (CIS)
Launch site: PLESETSK MISSILE AND SPACE COMPLEX (PKMTR)

Note: This is SATELLITE DEBRIS
aabbcc
Your satellite tracking list
Your tracking list is empty




NASA's NSSDC Master Catalog

Two Line Element Set (TLE):
1 34045U 93036JG  20027.15524675  .00000042  00000-0  24728-4 0  9996
2 34045  74.0389 273.2712 0026769 163.9379 358.5514 14.32878985572809
Source of the keplerian elements: AFSPC